www.pogodaiklimat.ru

Погода и климат >> Архив погоды >> Португалия >> Funchal (S.Catarina)


ПОГОДА в Funchal (S.Catarina)

  • Прогноз погоды в Funchal (S.Catarina)
  • Монитор погоды в Funchal (S.Catarina)
  • Климат города

АРХИВ ПОГОДЫ в Funchal (S.Catarina)

Время (UTC), дата Ветер
(напр.,м/с)
 
Видим.   Явления Облачность Т
(С)
Тd
(С)
f
(%)
Тe
(С)
Тes
(С)
Комфортность P
(гПа)
Po
(гПа)
Тmin
(С)
Tmax
(С)
R
(мм)
R24
(мм)
S
(см)
06 8.08 СВ 9 20 км 5/5 450 м
[Cu Sc]
+21.7 +16.5 72 +26 +26 душно 1018.7 1011.9 +21.6
09 8.08 СВ 8-15
{17}
20 км 4/4 450 м
[Cu Sc]
+23.0 +15.4 62 +27 +28 душно 1020.0 1013.3
12 8.08 СВ 10
{17}
20 км 4/4 450 м
[Cu Sc]
+24.0 +17.7 68 +28 +29 душно 1020.7 1014.0
15 8.08 СВ 7-14
{18}
20 км 4/4 480 м
[Cu Sc]
+25.2 +17.1 61 +29 +32 душно 1020.4 1013.7
18 8.08 СВ 10-18
{18}
20 км 5/5 450 м
[Cu Sc]
+24.2 +16.9 64 +28 +28 душно 1020.0 1013.3 +26.1
21 8.08 СВ 9-15
{15}
20 км 5/5 450 м
[Cu Sc]
+23.0 +17.0 69 +28 +28 душно 1021.5 1014.7
00 9.08 СВ 10-16
{17}
20 км 5/5 450 м
[Cu Sc]
+21.8 +16.8 73 +26 +26 душно 1021.8 1015.0
03 9.08 С 9
{14}
20 км 5/5 450 м
[Cu Sc]
+22.6 +15.7 65 +27 +27 душно 1021.3 1014.5
06 9.08 СВ 8 20 км 8/8 450 м
[Cu Sc]
+21.5 +17.9 80 +26 +26 душно 1021.9 1015.1 +21.2
09 9.08 СВ 8-13
{13}
20 км 8/8 450 м
[Cu Sc]
+22.2 +15.9 67 +26 +26 душно 1023.3 1016.5
12 9.08 СВ 8-15
{15}
20 км 6/6 450 м
[Cu Sc]
+23.2 +15.4 62 +27 +29 душно 1023.8 1017.0 0.1
15 9.08 СВ 8-15
{15}
20 км 5/5 480 м
[Cu Sc]
+24.3 +15.3 57 +27 +29 жарко 1023.5 1016.8
18 9.08 СВ 7
{12}
20 км 6/6 480 м
[Cu Sc]
+22.8 +15.1 62 +27 +27 душно 1022.7 1015.9 +24.7 0.1
21 9.08 СВ 8-12
{13}
20 км 8/8 450 м
[Cu Sc]
+21.8 +13.9 61 +25 +25 комфорт 1023.6 1016.8
00 10.08 СВ 9
{15}
20 км 6/6 450 м
[Cu Sc]
+21.6 +15.3 67 +25 +25 комфорт 1024.3 1017.4
03 10.08 СВ 8
{14}
н/о н/о +21.4 +11.6 54 +23 +23 комфорт 1023.3 1016.5
06 10.08 СВ 7 20 км 8/8 450 м
[Cu Sc]
+21.1 +14.0 64 +24 +24 комфорт 1022.9 1016.1 +20.9
09 10.08 С 7-12
{13}
20 км 8/8 480 м
[Cu Sc]
+22.2 +13.3 57 +25 +25 комфорт 1023.7 1016.9
12 10.08 СВ 9-14
{14}
20 км 9/9 450 м
[Cu Sc]
+22.2 +13.4 57 +25 +25 комфорт 1024.6 1017.8
15 10.08 СВ 9-14
{16}
20 км 6/6 480 м
[Cu Sc]
+22.7 +14.5 60 +26 +27 жарко 1023.7 1016.9
18 10.08 СВ 10-15
{16}
20 км 5/5 480 м
[Cu Sc]
+22.8 +14.6 60 +26 +27 жарко 1023.3 1016.5 +23.6
21 10.08 СВ 8-12
{17}
30 км 3/3 480 м
[Cu Sc]
+21.4 +14.6 65 +24 +24 комфорт 1023.9 1017.1
00 11.08 СВ 10
{17}
20 км 5/5 480 м
[Cu Sc]
+21.1 +13.4 61 +23 +23 комфорт 1024.5 1017.6
03 11.08 СВ 10
{18}
20 км 5/5 480 м
[Cu Sc]
+20.8 +13.7 64 +23 +23 комфорт 1022.8 1016.0
06 11.08 С 10 20 км 4/4 480 м
[Cu Sc]
+20.5 +12.7 61 +22 +22 комфорт 1022.7 1015.8 +20.5
09 11.08 СВ 9-15
{18}
20 км 6/6 400 м
[Cu Sc]
+22.0 +14.9 64 +25 +26 комфорт 1023.7 1016.9
12 11.08 С 10-16
{16}
20 км 4/4 450 м
[]
+23.2 +13.7 55 +27 +27 душно 1023.0 1016.2
15 11.08 СВ 11-19
{21}
20 км 4/4 450 м
[Cu Sc]
+24.4 +14.7 55 +27 +27 жарко 1021.2 1014.5
18 11.08 СВ 15 20 км 4/4 480 м
[Cu Sc]
+23.1 +14.7 59 +27 +27 душно 1019.9 1013.1 +24.6
21 11.08 СВ 16 20 км 3/3 480 м
[Cu Sc]
+21.9 +15.0 65 +25 +25 комфорт 1020.5 1013.7
00 12.08 СВ 13
{21}
20 км 3/3 480 м
[Cu Sc]
+21.6 +15.2 67 +25 +25 комфорт 1021.2 1014.4
03 12.08 СВ 11-18
{17}
20 км 5/5 480 м
[Cu Sc]
+21.6 +15.4 68 +25 +25 комфорт 1019.6 1012.8
06 12.08 СВ 13
{21}
20 км 5/5 480 м
[Cu Sc]
+21.9 +15.9 69 +26 +26 душно 1019.2 1012.5 +21.5
09 12.08 СВ 11-17
{18}
20 км 4/4 480 м
[Cu Sc]
+22.8 +16.2 66 +27 +27 душно 1019.5 1012.7
12 12.08 СВ 14
{21}
20 км 4/4 480 м
[Cu Sc]
+24.9 +16.7 60 +28 +28 жарко 1019.0 1012.3
15 12.08 СВ 13-19
{21}
28 км 3/3 480 м
[Cu Sc]
+25.5 +17.4 61 +30 +30 душно 1018.4 1011.7
18 12.08 СВ 12
{20}
20 км 3/3 480 м
[Cu Sc]
+23.8 +17.0 66 +28 +28 душно 1018.5 1011.8 +26.0
21 12.08 СВ 10
{16}
20 км 3/3 480 м
[Cu Sc]
+22.5 +16.7 70 +27 +27 душно 1019.2 1012.5
00 13.08 СВ 11-17
{17}
20 км 3/3 480 м
[Cu Sc]
+22.5 +16.6 69 +27 +27 душно 1018.6 1011.9
03 13.08 СВ 10-15
{15}
20 км 3/3 480 м
[Cu Sc]
+21.9 +17.4 76 +26 +26 душно 1018.2 1011.5
06 13.08 СВ 14 20 км 3/3 300 м
[Cu Sc]
+21.5 +16.3 72 +25 +25 комфорт 1017.3 1010.6 +21.5
09 13.08 СВ 10
{16}
20 км 6/6 480 м
[Cu Sc]
+22.9 +17.0 69 +28 +28 душно 1019.2 1012.4
12 13.08 СВ 12 20 км 5/5 480 м
[Cu Sc]
+24.0 +17.2 66 +28 +28 душно 1019.5 1012.7
15 13.08 В 8-13
{13}
20 км 5/3 480 м
[Cu Sc Ac trans Ci fib]
+24.2 +18.1 69 +29 +30 душно 1019.5 1012.8
18 13.08 В 7 20 км 6/5 480 м
[Cu Sc Ac trans Ci fib]
+24.3 +18.4 70 +29 +29 душно 1019.0 1012.3 +25.7
21 13.08 СВ 8
{13}
20 км 6/5 450 м
[Cu Sc Ac trans Ci fib]
+22.8 +17.4 72 +28 +28 душно 1019.3 1012.6
00 14.08 СВ 8-12
{14}
20 км 5/5 450 м
[Cu Sc Ac trans Ci fib]
+22.6 +17.7 74 +28 +28 душно 1019.6 1012.8
03 14.08 СВ 10
{15}
20 км 5/5 480 м
[Cu Sc Ac trans Ci fib]
+22.1 +17.3 74 +27 +27 душно 1018.7 1011.9
06 14.08 СВ 11
{17}
20 км 5/5 480 м
[Cu Sc Ac trans Ci fib]
+21.8 +17.7 78 +26 +26 душно 1019.1 1012.3 +20.8
09 14.08 СВ 9 20 км 8/8 450 м
[Cu Sc]
+22.1 +17.2 74 +27 +27 душно 1020.5 1013.7
12 14.08 СВ 9
{14}
20 км 5/5 450 м
[Cu Sc]
+24.7 +17.6 65 +29 +30 душно 1021.1 1014.4
15 14.08 СВ 11 20 км 4/4 480 м
[Cu Sc]
+25.2 +17.7 63 +29 +29 душно 1020.8 1014.0
18 14.08 СВ 11 20 км 3/3 480 м
[Cu Sc]
+23.8 +17.7 69 +28 +28 душно 1020.2 1013.4 +25.4
21 14.08 СВ 13 20 км 3/3 480 м
[Cu Sc]
+21.8 +16.9 74 +26 +26 душно 1021.4 1014.6
00 15.08 СВ 8-13
{16}
20 км 3/3 480 м
[Cu Sc]
+22.0 +15.1 65 +26 +26 душно 1021.7 1014.9
03 15.08 СВ 6-10
{15}
20 км 4/4 480 м
[Cu Sc]
+21.7 +15.9 70 +25 +25 комфорт 1020.4 1013.6

 

Местоположение метеостанции Funchal (S.Catarina) (Португалия): широта 32.68 долгота -16.76 высота над уровнем моря 49 м.

В архиве по умолчанию представлена погода в Funchal (S.Catarina) за последнюю неделю. Архивные данные за месяц целиком и за предыдущие месяцы, начиная с января 2011 года, Вы можете получить, выбрав интересующий диапазон дат из раскрывающегося списка и нажав кнопку "Ввод!".


*Определитесь, кто Вы:
робот инопланетянин человек

Внимание! Время в таблицах - всемирное. Для получения местного времени необходимо прибавить поправку, которая в Funchal (S.Catarina) равна 0 ч.

Смотрите также архив погоды в соседних городах и на ближайших метеорологических станциях:

Погода в Funchal (Португалия) (14 км)
Погода в Porto Santo (Португалия) (58 км)
Погода в La Palma (Канарские Острова) (461 км)
Погода в Tenerife (Канарские Острова) (470 км)
Погода в Sta. Cruz De Tenerife (Канарские Острова) (473 км)
Погода в Tenerife-Guimar (Канарские Острова) (486 км)
Погода в Izana (Канарские Острова) (488 км)
Погода в Lanzarote (Канарские Острова) (513 км)
Погода в Reina Sofia Airport (Канарские Острова) (515 км)
Погода в La Gomera (Канарские Острова) (519 км)

Пояснения к столбцам:

Ветер - указаны скорость ветра в м/с - средняя за 10 мин, порывы в срок и между сроками (в фигурных скобках) и направление, откуда дует ветер: С - северный, СВ - северо-восточный, В - восточный, ЮВ - юго-восточный, Ю - южный, ЮЗ - юго-западный, З - западный, СЗ - северо-западный.
Видимость - горизонтальная дальность видимости в метрах или километрах. При видимости от 1 до 10 км при отсутствии осадков обычно наблюдается дымка, при ухудшении видимости до 1 км и менее - туман. В сухую погоду видимость может ухудшаться дымом, пылью или мглою.
Явления - указаны атмосферные явления, наблюдавшиеся в срок или в последний час перед сроком; фигурными скобками обозначены явления, наблюдавшиеся между сроками (за 1-3 часа до срока); квадратными скобками обозначены град или гололедные отложения с указанием их диаметра в мм.
Облачность - указаны через наклонную черту общая и нижняя облачность в баллах и высота нижней границы облаков в метрах; квадратными скобками обозначены формы облаков: Ci - перистые, Cs - перисто-слоистые, Cc - перисто-кучевые, Ac - высококучевые, As - высокослоистые, Sc - слоисто-кучевые, Ns - слоисто-дождевые, Cu - кучевые, Cb - кучево-дождевые. Подробнее классификацию облаков см. в Атласе облаков (PDF).
T - Температура воздуха - температура, измеренная на высоте 2 м над землей.
Td - Температура точки росы - температура, при понижении до которой содержащийся в воздухе водяной пар достигнет насыщения.
f - Относительная влажность воздуха - влажноcть воздуха, измеренная на высоте 2 м над землей.
Te - Эффективная температура - температура, которую ощущает одетый по сезону человек в тени. Характеристика душности погоды. При расчете учитывается влияние влажности воздуха и скорости ветра на теплоощущения человека.
Tes - Эффективная температура на солнце - температура, которую ощущает человек, с поправкой на солнечный нагрев. Характеристика знойности погоды. Зависит от высоты солнца над горизонтом, облачности и скорости ветра. Ночью, в пасмурную погоду, а также при ветре 12 м/с и более поправка равна нулю.
P - Атмосферное давление - приведенное к уровню моря атмосферное давление.
Po - Атмосферное давление - измеренное на уровне метеостанции атмосферное давление.
Tmin - Минимальная температура - минимум температуры воздуха на высоте 2 м над землей.
Tmax - Максимальная температура - максимум температуры воздуха на высоте 2 м над землей.
R - Количество осадков - Количество выпавших осадков за период времени, мм. При наведении курсора мыши на число - период времени, за который выпало указанное количество осадков.
R24 - Количество осадков - Количество выпавших осадков за 24 часа, мм.
S - Снежный покров - Высота снежного покрова, см. При наведении курсора мыши на число - состояние снежного покрова и степень покрытия местности в баллах.